Flag for U.S.A. Weather past 2 weeks in Winamac, Indiana, U.S.A.

Now
45 °F

Fog.


Feels Like: 39 °F
Forecast: 36 / 49 °F
Wind: 14 mph from Southwest

Location: Porter County Municipal Airport

Current Time: Dec 27, 2014 at 10:08:35 AM

Latest Report: Dec 27, 2014 at 8:56 AM


Visibility: 2 mi

Pressure: 30.04 "Hg

Humidity: 97%

Dew point: 44 °F

Location of WinamacLocation

Historic Weather in Winamac — Graph

°F

Winamac temperature yesterday

Maximum temperature yesterday: 51 °F (at 1:56 PM)
Minimum temperature yesterday: 33 °F (at 4:56 AM)
Average temperature yesterday: 42 °F

Past Weeks' High & Low Weather Summary

 TemperatureHumidityPressure
High51 °F (Dec 26, 1:56 PM)100% (Dec 12, 12:56 PM)30.36 "Hg (Dec 12, 12:56 PM)
Low22 °F (Dec 18, 5:56 PM)63% (Dec 26, 1:56 PM)29.49 "Hg (Dec 24, 2:56 PM)
Average36 °F86%30.05 "Hg
* Reported Dec 12 8:56 AM — Dec 27 8:56 AM, Winamac, Weather by CustomWeather, © 2014

Note: Actual official high and low records may vary slightly from our data, if they occured in-between our weather recording intervals... More about our weather records

Advertising

Winamac weather history for previous 24 hours

 ConditionsComfort  
Time TempWeatherWind HumidityBarometerVisibility
8:56 AM
Dec 27
45 °FFog.14 mph97%30.04 "Hg2 mi
7:56 AM45 °FFog.13 mph93%30.04 "Hg6 mi
6:56 AM44 °FLow clouds.12 mph96%30.03 "Hg8 mi
5:56 AM44 °FLight rain. Fog.12 mph96%30.02 "Hg5 mi
4:56 AM45 °FLow clouds.14 mph93%30.04 "Hg10 mi
3:56 AM45 °FLight rain. Fog.13 mph97%30.05 "Hg4 mi
2:56 AM44 °FMostly cloudy.6 mph89%30.06 "Hg10 mi
1:56 AM45 °FOvercast.7 mph86%30.06 "Hg10 mi
12:56 AM45 °FOvercast.7 mph86%30.07 "Hg10 mi
11:56 PM
Dec 26
45 °FMostly cloudy.8 mph86%30.09 "Hg10 mi
10:56 PM45 °FMostly cloudy.6 mph86%30.08 "Hg10 mi
9:56 PM46 °FOvercast.7 mph83%30.08 "Hg10 mi
8:56 PM47 °FOvercast.12 mph80%30.07 "Hg10 mi
7:56 PM47 °FOvercast.8 mph80%30.07 "Hg10 mi
6:56 PM48 °FOvercast.9 mph80%30.07 "Hg10 mi
5:56 PM48 °FOvercast.9 mph77%30.05 "Hg10 mi
4:56 PM49 °FOvercast.10 mph74%30.05 "Hg10 mi
3:56 PM50 °FPassing clouds.10 mph66%30.05 "Hg10 mi
2:56 PM50 °FSunny.14 mph66%30.04 "Hg10 mi
1:56 PM51 °FSunny.14 mph63%30.05 "Hg10 mi
12:56 PM48 °FSunny.13 mph68%30.06 "Hg10 mi
11:56 AM45 °FSunny.16 mph74%30.09 "Hg10 mi
10:56 AM42 °FSunny.13 mph76%30.10 "Hg10 mi
Weather by CustomWeather, © 2014

See weather overviewHow to use our weather pages